TRA1049 LFLL-LIRZ

Flight info

Callsign TRA1049
Flight time 1h 1m
Altitude 36000
Route RISOR T47 LAMDO DCT VEROB DCT KALMO/N0428F370 DCT VERUN DCT LAKOX
Aircraft A320/M-SDE3FGHIRWY/LB1

Departure

Time 2026-04-29 12:11
Airport Lyon Saint-Exupéry Airport (LFLL)

Arrival

Time 2026-04-29 13:12
Airport Perugia San Francesco d'Assisi – Umbria International Airport (LIRZ)
Time Latitude Longitude Altitude Speed Heading
2026-04-29 12:00 45.72440 5.08308 796 ft 0 kts 181°
2026-04-29 12:03 45.72449 5.08308 796 ft 2 kts 176°
2026-04-29 12:03 45.72464 5.08308 796 ft 2 kts 183°
2026-04-29 12:03 45.72476 5.08309 796 ft 0 kts 181°
2026-04-29 12:03 45.72488 5.08307 796 ft 2 kts 155°
2026-04-29 12:04 45.72500 5.08294 796 ft 2 kts 123°
2026-04-29 12:04 45.72505 5.08274 795 ft 2 kts 90°
2026-04-29 12:04 45.72504 5.08264 795 ft 1 kts 73°
2026-04-29 12:04 45.72503 5.08258 795 ft 0 kts 78°
2026-04-29 12:07 45.72504 5.08260 795 ft 0 kts 78°
2026-04-29 12:07 45.72507 5.08280 795 ft 3 kts 78°
2026-04-29 12:07 45.72515 5.08315 796 ft 5 kts 63°
2026-04-29 12:07 45.72552 5.08369 796 ft 10 kts 25°
2026-04-29 12:08 45.72645 5.08373 794 ft 16 kts 354°
2026-04-29 12:08 45.72776 5.08357 792 ft 21 kts 355°
2026-04-29 12:08 45.72944 5.08340 789 ft 26 kts 356°
2026-04-29 12:08 45.73129 5.08317 787 ft 26 kts 355°
2026-04-29 12:09 45.73315 5.08294 783 ft 27 kts 354°
2026-04-29 12:09 45.73505 5.08273 780 ft 27 kts 353°
2026-04-29 12:09 45.73690 5.08279 777 ft 26 kts 31°
2026-04-29 12:09 45.73712 5.08506 779 ft 23 kts 102°
2026-04-29 12:10 45.73650 5.08702 781 ft 21 kts 152°
2026-04-29 12:10 45.73491 5.08742 784 ft 34 kts 175°
2026-04-29 12:10 45.72987 5.08802 794 ft 107 kts 175°
2026-04-29 12:10 45.72039 5.08920 819 ft 164 kts 174°
2026-04-29 12:11 45.70813 5.09089 1135 ft 187 kts 173°
2026-04-29 12:11 45.69556 5.09240 1976 ft 182 kts 174°
2026-04-29 12:11 45.68352 5.09370 2864 ft 175 kts 174°
2026-04-29 12:11 45.67092 5.09513 3392 ft 190 kts 174°
2026-04-29 12:12 45.65736 5.09673 3877 ft 208 kts 174°
2026-04-29 12:12 45.64201 5.09859 4364 ft 231 kts 174°
2026-04-29 12:12 45.62563 5.10060 4995 ft 246 kts 172°
2026-04-29 12:12 45.60860 5.10654 5628 ft 261 kts 156°
2026-04-29 12:13 45.59303 5.12053 6348 ft 272 kts 133°
2026-04-29 12:13 45.58354 5.14341 7295 ft 274 kts 107°
2026-04-29 12:13 45.57973 5.16985 8239 ft 277 kts 99°
2026-04-29 12:13 45.57679 5.19707 9086 ft 282 kts 100°
2026-04-29 12:14 45.57345 5.22441 9924 ft 287 kts 102°
2026-04-29 12:14 45.56950 5.25255 10679 ft 295 kts 103°
2026-04-29 12:14 45.56504 5.28167 11187 ft 310 kts 103°
2026-04-29 12:14 45.56018 5.31197 11922 ft 317 kts 103°
2026-04-29 12:15 45.55513 5.34270 12736 ft 321 kts 103°
2026-04-29 12:15 45.54999 5.37362 13531 ft 325 kts 104°
2026-04-29 12:15 45.54473 5.40500 14300 ft 329 kts 103°
2026-04-29 12:15 45.53939 5.43666 15049 ft 334 kts 103°
2026-04-29 12:16 45.53394 5.46881 15772 ft 338 kts 103°
2026-04-29 12:16 45.52840 5.50149 16482 ft 343 kts 103°
2026-04-29 12:16 45.52278 5.53451 17177 ft 347 kts 103°
2026-04-29 12:16 45.51709 5.56799 17864 ft 352 kts 103°
2026-04-29 12:17 45.51176 5.60196 18528 ft 356 kts 98°
2026-04-29 12:17 45.50952 5.63699 19199 ft 359 kts 89°
2026-04-29 12:17 45.51098 5.67243 19842 ft 362 kts 83°
2026-04-29 12:17 45.51428 5.70851 20496 ft 366 kts 81°
2026-04-29 12:18 45.51786 5.74458 21134 ft 370 kts 81°
2026-04-29 12:18 45.52139 5.78040 21776 ft 373 kts 82°
2026-04-29 12:18 45.52490 5.81710 22389 ft 377 kts 82°
2026-04-29 12:18 45.52839 5.85430 22985 ft 381 kts 82°
2026-04-29 12:19 45.53186 5.89189 23571 ft 384 kts 82°
2026-04-29 12:19 45.53534 5.92979 24135 ft 388 kts 82°
2026-04-29 12:19 45.53885 5.96801 24682 ft 392 kts 82°
2026-04-29 12:19 45.54239 6.00658 25206 ft 396 kts 81°
2026-04-29 12:20 45.54597 6.04567 25699 ft 400 kts 81°
2026-04-29 12:20 45.54955 6.08472 26189 ft 404 kts 81°
2026-04-29 12:20 45.55232 6.12474 26651 ft 408 kts 87°
2026-04-29 12:20 45.55106 6.16533 27096 ft 413 kts 96°
2026-04-29 12:21 45.54541 6.20554 27559 ft 417 kts 104°
2026-04-29 12:21 45.53751 6.24503 28028 ft 420 kts 106°
2026-04-29 12:21 45.52912 6.28488 28504 ft 423 kts 106°
2026-04-29 12:21 45.52041 6.32608 28929 ft 426 kts 106°
2026-04-29 12:22 45.51188 6.36672 29334 ft 430 kts 105°
2026-04-29 12:22 45.50341 6.40736 29742 ft 433 kts 105°
2026-04-29 12:22 45.49485 6.44849 30144 ft 436 kts 105°
2026-04-29 12:22 45.48622 6.49005 30534 ft 439 kts 105°
2026-04-29 12:23 45.47765 6.53132 31055 ft 438 kts 105°
2026-04-29 12:23 45.46901 6.57290 31599 ft 437 kts 105°
2026-04-29 12:23 45.46045 6.61396 32118 ft 436 kts 105°
2026-04-29 12:23 45.45173 6.65572 32592 ft 435 kts 106°
2026-04-29 12:24 45.44315 6.69674 33046 ft 434 kts 106°
2026-04-29 12:24 45.43436 6.73867 33511 ft 433 kts 106°
2026-04-29 12:24 45.42578 6.77954 33924 ft 433 kts 106°
2026-04-29 12:24 45.41714 6.82054 34342 ft 432 kts 106°
2026-04-29 12:25 45.40860 6.86106 34693 ft 432 kts 106°
2026-04-29 12:25 45.39990 6.90226 34955 ft 434 kts 106°
2026-04-29 12:25 45.38249 6.98441 35442 ft 436 kts 106°
2026-04-29 12:26 45.37380 7.02534 35667 ft 438 kts 106°
2026-04-29 12:26 45.36491 7.06704 35888 ft 439 kts 106°
2026-04-29 12:26 45.35611 7.10827 36085 ft 441 kts 106°
2026-04-29 12:27 45.33817 7.19197 36115 ft 442 kts 106°
2026-04-29 12:27 45.32035 7.27479 36118 ft 442 kts 106°
2026-04-29 12:28 45.30113 7.35750 36133 ft 442 kts 111°
2026-04-29 12:28 45.27524 7.43669 36120 ft 443 kts 119°
2026-04-29 12:29 45.24371 7.51179 36097 ft 442 kts 121°
2026-04-29 12:29 45.21170 7.58618 36085 ft 442 kts 121°
2026-04-29 12:30 45.17979 7.66046 36081 ft 441 kts 122°
2026-04-29 12:30 45.14788 7.73471 36080 ft 442 kts 122°
2026-04-29 12:31 45.11579 7.80921 36078 ft 442 kts 122°
2026-04-29 12:31 45.08389 7.88310 36077 ft 441 kts 122°
2026-04-29 12:32 45.05200 7.95678 36067 ft 441 kts 122°
2026-04-29 12:32 45.01985 8.03087 36051 ft 441 kts 122°
2026-04-29 12:33 44.98775 8.10466 36040 ft 441 kts 122°
2026-04-29 12:33 44.95567 8.17826 36039 ft 441 kts 122°
2026-04-29 12:34 44.92367 8.25140 36033 ft 441 kts 122°
2026-04-29 12:34 44.89138 8.32506 36030 ft 441 kts 122°
2026-04-29 12:35 44.85930 8.39801 36030 ft 441 kts 122°
2026-04-29 12:35 44.82688 8.47157 36025 ft 441 kts 122°
2026-04-29 12:36 44.79469 8.54444 36026 ft 441 kts 122°
2026-04-29 12:36 44.76229 8.61757 36023 ft 441 kts 122°
2026-04-29 12:37 44.72992 8.69049 36025 ft 440 kts 123°
2026-04-29 12:37 44.69716 8.76404 36030 ft 440 kts 123°
2026-04-29 12:38 44.66490 8.83631 36035 ft 441 kts 123°
2026-04-29 12:38 44.63233 8.90907 36037 ft 440 kts 123°
2026-04-29 12:39 44.59971 8.98178 36042 ft 440 kts 123°
2026-04-29 12:39 44.56702 9.05446 36041 ft 441 kts 123°
2026-04-29 12:40 44.53452 9.12654 36046 ft 441 kts 123°
2026-04-29 12:40 44.50171 9.19911 36050 ft 441 kts 123°
2026-04-29 12:41 44.46899 9.27129 36047 ft 441 kts 123°
2026-04-29 12:41 44.43596 9.34399 36047 ft 442 kts 123°
2026-04-29 12:42 44.40307 9.41616 36041 ft 441 kts 123°
2026-04-29 12:42 44.37022 9.48812 36044 ft 441 kts 123°
2026-04-29 12:43 44.33736 9.55984 36043 ft 441 kts 123°
2026-04-29 12:43 44.30479 9.63235 36032 ft 441 kts 121°
2026-04-29 12:44 44.27341 9.70573 36036 ft 441 kts 122°
2026-04-29 12:44 44.24208 9.77877 36031 ft 441 kts 122°
2026-04-29 12:45 44.21051 9.85194 36031 ft 441 kts 122°
2026-04-29 12:45 44.17886 9.92495 36031 ft 440 kts 122°
2026-04-29 12:46 44.14714 9.99792 36028 ft 440 kts 122°
2026-04-29 12:46 44.11539 10.07074 36032 ft 440 kts 122°
2026-04-29 12:47 44.08367 10.14330 36041 ft 440 kts 122°
2026-04-29 12:47 44.05174 10.21619 36044 ft 441 kts 122°
2026-04-29 12:48 44.01994 10.28862 36041 ft 440 kts 122°
2026-04-29 12:48 43.98806 10.36105 36036 ft 440 kts 122°
2026-04-29 12:49 43.95603 10.43360 36038 ft 440 kts 122°
2026-04-29 12:49 43.92396 10.50605 36046 ft 440 kts 122°
2026-04-29 12:50 43.89179 10.57855 36037 ft 440 kts 122°
2026-04-29 12:50 43.87587 10.61439 35677 ft 442 kts 122°
2026-04-29 12:50 43.85959 10.65090 34837 ft 451 kts 122°
2026-04-29 12:50 43.84320 10.68764 34031 ft 455 kts 122°
2026-04-29 12:51 43.82643 10.72524 33331 ft 455 kts 122°
2026-04-29 12:51 43.80998 10.76211 32645 ft 455 kts 122°
2026-04-29 12:51 43.79320 10.79964 31899 ft 456 kts 122°
2026-04-29 12:51 43.77655 10.83682 31145 ft 457 kts 122°
2026-04-29 12:52 43.75980 10.87417 30388 ft 458 kts 122°
2026-04-29 12:52 43.74314 10.91128 29658 ft 457 kts 122°
2026-04-29 12:52 43.72654 10.94823 29123 ft 452 kts 122°
2026-04-29 12:52 43.71014 10.98468 28595 ft 447 kts 122°
2026-04-29 12:53 43.69384 11.02087 28018 ft 443 kts 122°
2026-04-29 12:53 43.67751 11.05708 27433 ft 439 kts 122°
2026-04-29 12:53 43.66145 11.09262 26860 ft 436 kts 122°
2026-04-29 12:53 43.64552 11.12784 26291 ft 433 kts 122°
2026-04-29 12:54 43.62974 11.16269 25733 ft 429 kts 122°
2026-04-29 12:54 43.61404 11.19730 25185 ft 426 kts 122°
2026-04-29 12:54 43.59843 11.23167 24644 ft 423 kts 122°
2026-04-29 12:54 43.58300 11.26560 24098 ft 420 kts 123°
2026-04-29 12:55 43.56765 11.29935 23553 ft 417 kts 123°
2026-04-29 12:55 43.55234 11.33294 23037 ft 413 kts 123°
2026-04-29 12:55 43.53701 11.36655 22526 ft 410 kts 123°
2026-04-29 12:55 43.52195 11.39955 22020 ft 407 kts 123°
2026-04-29 12:56 43.50717 11.43187 21512 ft 404 kts 123°
2026-04-29 12:56 43.49215 11.46470 21010 ft 400 kts 123°
2026-04-29 12:56 43.47742 11.49684 20407 ft 400 kts 123°
2026-04-29 12:56 43.46263 11.52910 19838 ft 399 kts 123°
2026-04-29 12:57 43.44792 11.56111 19334 ft 396 kts 123°
2026-04-29 12:57 43.43334 11.59284 18852 ft 392 kts 123°
2026-04-29 12:57 43.41884 11.62435 18377 ft 389 kts 123°
2026-04-29 12:57 43.40451 11.65544 17922 ft 385 kts 124°
2026-04-29 12:58 43.39027 11.68632 17472 ft 381 kts 124°
2026-04-29 12:58 43.37620 11.71679 17029 ft 377 kts 124°
2026-04-29 12:58 43.36212 11.74724 16597 ft 374 kts 124°
2026-04-29 12:58 43.34835 11.77701 16170 ft 370 kts 124°
2026-04-29 12:59 43.33466 11.80657 15733 ft 367 kts 124°
2026-04-29 12:59 43.32108 11.83587 15310 ft 364 kts 124°
2026-04-29 12:59 43.30745 11.86523 14885 ft 361 kts 124°
2026-04-29 12:59 43.29407 11.89400 14464 ft 358 kts 124°
2026-04-29 13:00 43.27994 11.92150 14046 ft 354 kts 129°
2026-04-29 13:00 43.26427 11.94717 13624 ft 351 kts 134°
2026-04-29 13:00 43.24792 11.97169 13190 ft 348 kts 134°
2026-04-29 13:00 43.23157 11.99591 12775 ft 345 kts 135°
2026-04-29 13:01 43.21528 12.02004 12380 ft 342 kts 134°
2026-04-29 13:01 43.19933 12.04371 11981 ft 339 kts 134°
2026-04-29 13:01 43.18346 12.06728 11575 ft 336 kts 134°
2026-04-29 13:01 43.16793 12.09048 11341 ft 326 kts 133°
2026-04-29 13:02 43.15582 12.11595 11219 ft 316 kts 115°
2026-04-29 13:02 43.14978 12.14492 10872 ft 314 kts 103°
2026-04-29 13:02 43.14282 12.17265 10463 ft 308 kts 125°
2026-04-29 13:02 43.12757 12.19187 10167 ft 295 kts 155°
2026-04-29 13:03 43.10853 12.20078 9888 ft 285 kts 168°
2026-04-29 13:03 43.08973 12.20718 9621 ft 280 kts 167°
2026-04-29 13:03 43.07095 12.21439 9339 ft 275 kts 165°
2026-04-29 13:03 43.05307 12.22217 9154 ft 266 kts 164°
2026-04-29 13:04 43.03595 12.23013 9071 ft 255 kts 163°
2026-04-29 13:04 43.01943 12.23805 8907 ft 250 kts 163°
2026-04-29 13:04 43.00308 12.24591 8625 ft 248 kts 162°
2026-04-29 13:04 42.98690 12.25371 8334 ft 246 kts 162°
2026-04-29 13:05 42.97078 12.26151 8046 ft 245 kts 162°
2026-04-29 13:05 42.95477 12.26926 7749 ft 244 kts 162°
2026-04-29 13:05 42.93904 12.27776 7411 ft 245 kts 151°
2026-04-29 13:05 42.92603 12.29236 7089 ft 246 kts 133°
2026-04-29 13:06 42.91501 12.31039 6806 ft 244 kts 130°
2026-04-29 13:06 42.90448 12.32830 6571 ft 240 kts 130°
2026-04-29 13:06 42.89407 12.34590 6329 ft 236 kts 130°
2026-04-29 13:06 42.88392 12.36308 6098 ft 233 kts 126°
2026-04-29 13:07 42.87826 12.38330 5803 ft 231 kts 89°
2026-04-29 13:07 42.88306 12.40374 5539 ft 228 kts 51°
2026-04-29 13:07 42.89408 12.41745 5513 ft 205 kts 37°
2026-04-29 13:07 42.90505 12.42889 5371 ft 193 kts 37°
2026-04-29 13:08 42.91542 12.43994 5117 ft 189 kts 38°
2026-04-29 13:08 42.92596 12.45035 4700 ft 189 kts 28°
2026-04-29 13:08 42.93791 12.45752 4196 ft 188 kts 18°
2026-04-29 13:08 42.95023 12.46254 3748 ft 181 kts 13°
2026-04-29 13:09 42.96226 12.46670 3433 ft 172 kts 12°
2026-04-29 13:09 42.97346 12.47049 3199 ft 162 kts 12°
2026-04-29 13:09 42.98435 12.47423 2969 ft 161 kts 12°
2026-04-29 13:09 42.99520 12.47801 2746 ft 161 kts 12°
2026-04-29 13:10 43.00603 12.48180 2514 ft 161 kts 12°
2026-04-29 13:10 43.01674 12.48556 2282 ft 160 kts 13°
2026-04-29 13:10 43.02746 12.48933 2055 ft 156 kts 12°
2026-04-29 13:10 43.03794 12.49318 1763 ft 157 kts 13°
2026-04-29 13:11 43.04849 12.49687 1575 ft 157 kts 12°
2026-04-29 13:11 43.05897 12.50047 1433 ft 153 kts 12°
2026-04-29 13:11 43.06947 12.50399 1166 ft 157 kts 14°
2026-04-29 13:11 43.07997 12.50771 921 ft 156 kts 13°
2026-04-29 13:12 43.09021 12.51122 713 ft 144 kts 12°
2026-04-29 13:12 43.09875 12.51415 711 ft 92 kts 17°
2026-04-29 13:12 43.10245 12.51541 716 ft 36 kts 13°
2026-04-29 13:12 43.10475 12.51627 719 ft 32 kts 14°
2026-04-29 13:13 43.10668 12.51693 722 ft 22 kts
2026-04-29 13:13 43.10778 12.51593 723 ft 21 kts 283°
2026-04-29 13:13 43.10685 12.51471 721 ft 21 kts 196°
2026-04-29 13:13 43.10540 12.51424 719 ft 21 kts 194°
2026-04-29 13:14 43.10393 12.51371 717 ft 22 kts 194°
2026-04-29 13:14 43.10238 12.51315 715 ft 23 kts 194°
2026-04-29 13:14 43.10075 12.51257 712 ft 24 kts 192°
2026-04-29 13:14 43.09908 12.51201 710 ft 25 kts 192°
2026-04-29 13:15 43.09756 12.51106 708 ft 24 kts 237°
2026-04-29 13:15 43.09683 12.50894 706 ft 25 kts 245°
2026-04-29 13:15 43.09610 12.50665 705 ft 26 kts 245°
2026-04-29 13:15 43.09535 12.50456 703 ft 20 kts 245°
2026-04-29 13:16 43.09520 12.50363 703 ft 0 kts 284°